Total_Precipitation_Accumulation
1.19 1.15 1.17 1.26 1.30 1.34 1.32 1.21 1.10 1.04 1.04 1.13 1.24 1.27 1.29 1.31 1.27 1.21 1.12 1.06 1.04 1.02 1.05 1.10 1.08 1.07 1.14 1.09 1.03 1.00 1.03 1.17 1.18 0.65 0.48 0.52 0.72 0.92 0.98 1.00 1.05 1.01 0.94
1.13 1.21 1.18 1.20 1.30 1.31 1.23 1.17 1.16 1.10 1.06 1.10 1.22 1.34 1.34 1.32 1.30 1.28 1.24 1.23 1.25 1.19 1.11 1.12 1.14 1.16 1.20 1.18 1.18 1.10 1.00 0.97 1.09 0.91 0.64 0.64 0.77 0.94 1.01 1.05 1.12 1.11 1.01
0.98 1.11 1.20 1.22 1.26 1.30 1.24 1.13 1.13 1.16 1.13 1.11 1.18 1.34 1.40 1.40 1.36 1.28 1.27 1.31 1.37 1.42 1.37 1.33 1.26 1.26 1.28 1.23 1.25 1.21 1.11 1.02 1.01 1.04 0.84 0.74 0.80 0.92 1.05 1.14 1.17 1.18 1.18
0.84 1.00 1.09 1.15 1.23 1.27 1.27 1.23 1.16 1.14 1.15 1.15 1.16 1.23 1.36 1.46 1.52 1.52 1.52 1.47 1.46 1.48 1.49 1.49 1.44 1.44 1.40 1.36 1.37 1.33 1.30 1.30 1.24 1.23 1.09 0.93 0.90 0.94 1.12 1.31 1.40 1.28 1.26
0.71 0.86 1.01 1.07 1.16 1.23 1.24 1.25 1.28 1.27 1.18 1.17 1.17 1.16 1.23 1.50 1.85 1.82 1.71 1.63 1.50 1.41 1.34 1.34 1.40 1.54 1.61 1.69 1.73 1.63 1.60 1.70 1.66 1.58 1.39 1.20 1.09 1.14 1.26 1.36 1.57 1.53 1.43
0.66 0.68 0.84 1.00 1.10 1.17 1.20 1.26 1.28 1.30 1.28 1.22 1.18 1.15 1.20 1.42 1.89 1.97 1.66 1.43 1.30 1.27 1.25 1.16 1.14 1.34 1.43 1.57 1.72 1.75 1.82 1.98 2.07 1.99 1.72 1.47 1.21 1.17 1.29 1.51 1.72 1.90 1.83
0.56 0.55 0.64 0.78 0.95 1.05 1.12 1.20 1.31 1.33 1.30 1.26 1.18 1.12 1.09 1.19 1.62 1.73 1.53 1.25 1.11 1.07 1.08 1.07 1.04 1.07 1.20 1.17 1.34 1.46 1.53 1.71 1.95 2.06 2.02 1.60 1.34 1.24 1.51 1.72 1.77 1.90 1.81
0.50 0.48 0.49 0.56 0.72 0.88 1.04 1.13 1.22 1.32 1.33 1.28 1.20 1.12 1.08 1.06 1.42 1.61 1.49 1.13 0.97 0.89 0.88 0.87 0.87 0.91 1.04 1.20 1.31 1.32 1.25 1.34 1.63 1.83 1.99 1.82 1.61 1.57 1.82 2.10 2.23 2.24 2.03
0.45 0.45 0.42 0.43 0.54 0.70 0.86 0.99 1.08 1.20 1.24 1.22 1.17 1.08 1.04 1.03 1.25 1.58 1.57 1.18 1.00 0.87 0.84 0.83 0.80 0.80 1.08 1.34 1.31 1.24 1.12 1.14 1.32 1.61 1.83 1.92 1.99 2.11 2.28 2.57 2.74 2.70 2.53
0.42 0.41 0.40 0.41 0.46 0.56 0.69 0.84 1.00 1.11 1.18 1.18 1.17 1.08 1.02 0.98 1.16 1.54 1.73 1.28 1.08 0.96 0.88 0.84 0.94 0.99 1.21 1.31 1.22 1.25 1.29 1.16 1.12 1.19 1.29 1.40 1.49 1.65 2.00 2.28 2.53 2.69 2.64
0.41 0.40 0.40 0.40 0.42 0.49 0.62 0.75 0.93 1.07 1.17 1.17 1.11 1.10 1.01 0.98 1.03 1.32 1.73 1.46 1.16 1.06 1.02 0.96 0.91 1.08 1.15 1.21 1.26 1.25 1.39 1.28 1.19 1.28 1.27 1.22 1.25 1.38 1.58 1.87 2.24 2.56 2.74
0.39 0.38 0.38 0.37 0.39 0.46 0.59 0.72 0.87 1.03 1.16 1.18 1.11 1.14 1.11 1.04 1.03 1.22 1.51 1.54 1.33 1.09 1.01 0.91 0.91 1.08 1.13 1.21 1.22 1.31 1.40 1.35 1.26 1.27 1.21 1.17 1.19 1.27 1.40 1.61 1.89 2.14 2.30
0.38 0.38 0.38 0.38 0.40 0.43 0.52 0.68 0.88 0.99 1.10 1.17 1.09 1.10 1.16 1.14 1.15 1.35 1.39 1.41 1.38 1.20 1.17 1.19 1.13 1.17 1.18 1.13 1.18 1.23 1.23 1.19 1.25 1.27 1.16 1.07 1.07 1.18 1.26 1.39 1.57 1.80 1.98
0.39 0.40 0.38 0.40 0.45 0.45 0.50 0.61 0.81 0.96 1.07 1.17 1.11 1.04 1.09 1.19 1.34 1.50 1.43 1.33 1.36 1.33 1.30 1.31 1.28 1.25 1.18 1.12 1.12 1.07 1.04 1.11 1.17 1.16 1.06 0.96 0.95 1.06 1.19 1.31 1.49 1.68 1.94
0.40 0.42 0.41 0.42 0.47 0.50 0.55 0.62 0.73 0.85 1.08 1.28 1.21 1.14 1.24 1.41 1.54 1.71 1.60 1.46 1.46 1.47 1.42 1.34 1.24 1.22 1.22 1.13 1.04 0.98 0.97 1.03 1.06 0.99 0.99 0.98 0.98 1.04 1.12 1.23 1.46 1.63 1.83
0.43 0.43 0.46 0.49 0.50 0.51 0.59 0.69 0.80 0.86 0.97 1.02 1.12 1.19 1.19 1.42 1.50 1.46 1.42 1.37 1.43 1.53 1.44 1.32 1.13 1.05 1.05 1.01 0.99 0.97 0.93 0.94 0.92 0.92 0.98 1.01 1.04 1.09 1.13 1.18 1.39 1.60 1.69
0.49 0.49 0.51 0.52 0.51 0.52 0.58 0.70 0.83 0.91 0.97 0.99 1.02 1.12 1.19 1.33 1.39 1.37 1.35 1.28 1.26 1.27 1.22 1.10 1.00 0.94 0.89 0.86 0.90 0.89 0.88 0.86 0.89 0.94 0.95 0.94 0.98 1.04 1.09 1.15 1.27 1.42 1.51
0.52 0.56 0.59 0.57 0.56 0.58 0.64 0.74 0.85 0.95 1.02 1.05 1.09 1.18 1.25 1.29 1.33 1.37 1.41 1.38 1.34 1.21 1.05 0.99 0.98 0.94 0.90 0.89 0.89 0.90 0.88 0.87 0.93 0.98 0.98 0.93 0.96 1.03 1.07 1.10 1.15 1.29 1.39
0.53 0.56 0.62 0.64 0.63 0.64 0.69 0.78 0.87 0.95 1.00 1.06 1.12 1.29 1.42 1.42 1.41 1.44 1.39 1.22 1.11 1.05 1.00 0.96 0.95 0.99 0.98 0.96 0.92 0.93 0.95 0.95 0.94 0.99 0.98 0.95 0.95 1.02 1.04 1.03 1.08 1.21 1.30
0.54 0.62 0.68 0.70 0.68 0.70 0.74 0.83 0.91 0.98 1.01 1.06 1.10 1.20 1.38 1.47 1.45 1.46 1.35 1.18 1.08 1.00 0.95 0.95 0.94 0.97 1.01 1.00 0.98 0.98 1.01 1.01 1.02 1.03 0.98 0.94 0.95 0.99 1.02 1.02 1.05 1.09 1.11
0.58 0.61 0.67 0.69 0.69 0.74 0.79 0.86 0.94 1.02 1.03 1.03 1.05 1.12 1.33 1.34 1.27 1.21 1.24 1.23 1.16 1.06 0.99 0.98 0.95 0.95 0.97 0.97 0.96 0.97 1.00 1.00 1.00 1.01 0.95 0.88 0.88 0.95 0.96 0.97 0.96 0.94 0.97
0.60 0.63 0.65 0.68 0.72 0.79 0.85 0.90 0.98 1.04 1.02 1.02 1.04 1.13 1.23 1.09 1.04 1.05 1.10 1.15 1.14 1.09 1.00 1.02 1.00 0.95 0.96 0.99 1.00 1.02 1.02 1.00 0.95 0.93 0.91 0.86 0.85 0.88 0.88 0.87 0.84 0.84 0.87
0.62 0.67 0.71 0.72 0.74 0.84 0.89 0.88 0.94 1.01 1.03 1.02 1.03 1.05 1.09 1.08 1.04 1.01 1.05 1.07 1.09 1.07 1.01 1.01 1.00 0.94 0.90 0.92 0.96 1.03 1.10 1.04 0.95 0.94 0.97 0.91 0.86 0.84 0.81 0.78 0.74 0.77 0.82
0.65 0.70 0.77 0.80 0.81 0.82 0.87 0.90 0.93 1.00 1.05 1.03 1.00 1.00 1.05 1.08 1.06 1.02 1.00 1.00 1.03 1.02 0.97 0.99 0.98 0.92 0.86 0.85 0.86 0.89 0.94 0.99 0.99 0.98 0.97 0.95 0.88 0.80 0.78 0.77 0.71 0.72 0.79
0.69 0.73 0.80 0.86 0.87 0.88 0.91 0.92 0.94 0.99 1.04 1.02 1.00 0.99 0.99 1.02 1.03 1.02 0.98 0.98 0.99 0.95 0.89 0.91 0.96 0.95 0.87 0.82 0.80 0.81 0.92 0.98 1.01 1.06 1.13 1.10 0.95 0.81 0.77 0.77 0.74 0.74 0.79
0.71 0.74 0.82 0.87 0.89 0.93 0.96 0.99 0.98 0.98 1.02 1.00 0.97 0.98 0.99 1.02 1.04 1.02 0.99 0.99 1.02 0.98 0.91 0.89 0.90 0.89 0.84 0.82 0.81 0.84 0.88 0.89 0.95 1.05 1.16 1.22 1.07 0.88 0.82 0.80 0.75 0.75 0.78